South Palm Beach, FL

4:30 PM EST on December 09, 2016 (GMT -0500)
| | Change Station

Elev -9999 ft 0.00 °N, 0.00 °E | Updated 0 second ago

Mostly Cloudy
Mostly Cloudy
°F
Feels Like °F
N
Wind Variable Wind from North
Gusts mph

Today
High -- | Low -- °F
--% Chance of Precip.
Yesterday
High -- | Low -- °F
Precip. -- in
Pressure 30.17 in
Visibility 10.0 miles
Clouds Scattered Clouds 2000 ft
Mostly Cloudy 14000 ft
Dew Point Not available.
Humidity Not available.
Rainfall --
Snow Depth Not available.
6:57 AM 5:28 PM
Waxing Gibbous, 77% visible
SPECI KPBI 092113Z 35014G21KT 10SM SCT020 BKN140 20/16 A3017 RMK AO2 T02000156
Pressure 30.17 in
Visibility 10.0 miles
Clouds Scattered Clouds 2000 ft
Mostly Cloudy 14000 ft
Dew Point Not available.
Humidity Not available.
Rainfall --
Snow Depth Not available.
6:57 AM 5:28 PM
Waxing Gibbous, 77% visible
SPECI KPBI 092113Z 35014G21KT 10SM SCT020 BKN140 20/16 A3017 RMK AO2 T02000156

10-Day Weather Forecast

Almanac

Astronomy

Dec. 09, 2016 Rise Set
Actual Time
Civil Twilight
Nautical Twilight
Astronomical Twilight
Moon
Length of Visible Light
Length of Day
Tomorrow will be .
, % of the Moon is Illuminated

Today's Extremes

State Highs State Lows

Community

WunderPhotos

Upload Photos

1,956,517 photos uploaded!

WunderBlog® & News

Nearby

Air Quality

  Air Quality AQ Index Pollutant
Not available.

Snow Depth

Station Depth Elevation

Earthquake Activity

City Distance Mag. Time & Date
Minimum magnitude displayed is 2.5.

Coastal Water Temperatures

Place Temperature

Stations

Nearby Weather Stations

Station Location Temp. Windchill Dew Point Humidity Wind Precip. Elev Updated Type
                   

Watches & Warnings

There are currently no watches in effect.